Dewpoint
66 66 66 66 66 66 66 66 65 65 65 65 65 65 66 66 67 67 67 68 68 68 68 68 68 69 69 69 69 69 69 69 69 69 70 69 70 69 69 69 69 69
66 66 67 67 66 66 66 66 65 65 65 65 66 66 66 67 67 67 67 68 68 68 68 68 68 68 68 68 68 68 68 68 68 69 69 68 69 69 68 69 68 69
65 66 65 65 65 65 65 66 66 66 65 66 66 66 66 67 67 67 68 67 68 68 68 68 68 68 68 67 67 67 67 67 67 67 68 68 68 68 68 68 68 68
65 65 65 65 65 64 65 65 65 64 65 64 65 65 66 66 67 67 67 67 67 67 67 67 67 67 67 67 67 67 67 67 67 67 67 68 68 68 68 68 67 67
64 64 64 64 64 64 64 64 63 64 64 64 64 65 66 66 66 66 66 66 66 66 66 66 66 66 67 66 66 66 66 66 67 67 67 67 67 68 68 67 67 66
63 63 64 64 64 63 63 63 63 63 63 64 64 65 65 65 65 65 66 65 66 66 66 66 66 66 66 66 66 66 66 66 66 67 67 66 67 67 67 68 67 66
62 62 62 63 63 63 63 63 63 63 63 63 64 64 65 65 65 65 65 65 65 66 66 65 66 65 66 66 65 65 66 66 66 66 66 66 67 67 67 67 67 67
61 62 62 62 62 62 63 62 62 62 62 63 63 64 65 65 65 65 65 65 65 66 66 66 65 65 65 65 65 64 64 65 65 66 66 66 66 66 67 67 67 66
61 61 61 62 62 62 62 62 62 62 63 63 64 64 65 65 65 65 66 65 65 66 66 65 65 65 65 64 65 64 63 64 64 65 65 65 65 66 66 67 66 65
61 61 61 61 61 62 62 62 62 62 63 63 64 65 65 65 66 66 66 66 66 66 66 65 65 65 64 64 64 63 63 63 63 64 65 65 65 65 66 66 65 65
60 61 61 61 61 61 62 62 62 62 63 63 64 64 64 65 66 66 66 66 66 66 66 65 65 65 64 64 64 64 64 63 64 64 65 65 65 65 64 65 65 65
60 60 60 61 61 62 62 62 63 63 62 63 64 63 64 65 65 66 66 66 66 66 65 65 65 65 64 64 64 64 63 63 63 64 65 64 64 65 65 65 65 65
59 60 60 61 61 62 62 63 63 63 62 62 63 64 64 64 65 65 65 66 66 66 66 65 65 65 65 64 64 62 62 62 63 64 64 64 64 65 65 65 65 66
59 59 60 61 62 62 63 63 63 62 62 63 63 63 63 64 64 64 64 64 65 65 66 66 65 64 65 64 63 62 62 61 62 62 63 63 64 65 65 65 65 64
59 60 61 62 62 63 63 62 62 62 62 62 63 63 64 63 64 64 63 63 64 65 65 65 64 64 65 64 63 62 61 61 61 61 61 62 62 63 64 65 65 65
59 60 61 61 62 62 62 62 62 62 62 62 62 63 63 63 63 63 63 63 64 64 64 64 64 64 63 59 59 62 61 60 60 60 60 61 62 62 63 63 64 65
59 60 60 61 61 62 62 61 61 62 62 62 62 63 63 63 63 63 63 63 63 63 64 64 64 64 60 59 61 61 61 60 60 59 60 60 61 62 62 63 63 64
60 60 60 60 61 61 61 61 61 61 62 62 62 62 62 63 63 62 63 63 63 64 64 64 64 61 59 59 60 60 60 60 59 60 61 61 62 62 62 63 63 64
59 59 60 60 60 60 60 60 60 61 62 62 62 62 63 62 62 62 62 63 63 63 64 64 63 60 59 58 59 58 58 59 60 61 62 62 63 62 62 63 63 64
59 59 59 59 59 59 59 60 60 61 61 62 62 62 61 61 61 61 62 62 63 64 64 63 63 60 58 57 56 56 57 59 61 61 61 61 60 61 63 64 64 64
58 58 58 58 58 59 59 59 60 61 61 62 62 62 61 60 60 61 61 63 63 64 63 63 63 58 56 55 54 54 55 59 61 59 60 60 59 59 59 59 59 60
58 57 57 57 58 59 59 59 60 60 61 61 62 61 61 61 61 61 62 62 63 63 63 62 63 58 56 55 54 54 55 60 60 59 58 58 58 58 58 58 59 59
58 57 57 58 58 58 58 59 59 60 61 62 62 61 60 60 60 60 61 62 63 63 63 62 62 60 56 54 52 53 55 60 60 59 58 58 58 58 58 58 58 58
58 57 57 58 58 57 58 59 60 61 61 62 61 60 59 59 60 61 62 62 63 63 62 62 62 60 56 54 52 52 53 60 59 58 58 58 58 58 58 58 57 58
57 58 58 58 58 58 58 60 61 61 62 61 60 59 59 60 61 61 61 61 62 62 63 63 63 61 57 56 53 51 55 60 59 58 57 57 57 57 58 58 57 57
58 60 60 59 58 58 59 60 62 62 60 58 58 59 59 60 60 60 59 59 59 61 62 63 63 63 62 56 53 51 52 58 60 58 57 57 57 58 57 57 57 57